Content
SEND FEEDBACK

Daily
Averages
Monthly
Summary
United States of America

ALPINE MEADOWS, CALIFORNIA


Home > North America > United States > California
Elevation: 6230 feet     Latitude: 39 12N     Longitude: 120 14W

WEATHER
 
SELECT A DAY
Number of Records: 289,305;   Date Range: 1/1/95 - 11/27/14
 
SHARE

PRINT THIS DATA

[ ← Previous Day ]
WEATHER ALMANAC - OCTOBER 28, 2013
[ Next Day → ]
[ °C ]   °F
Weather ElementAverageHighLow
Temperature31 °F33.8 °F (10:50 am)28.4 °F (3:35 am)
Dewpoint28.9 °F30.2 °F (12:35 am)26.6 °F (10:50 am)
Humidity92.1 %100 % (3:35 am)75 % (10:50 am)
Barometer29.67 in29.81 in (11:15 pm)29.55 in (3:35 am)
Wind Speed2.2 mph10.4 mph (10:50 am)
Weather ElementAverage
Visibility4.9 mi
Wind DirectionESE (103.6 °)

Weather ElementTotal
Precipitation0.82 in
Heating Degree Days33.9 (Base 65)
Averaged from 47 records on October 28, 2013
WEATHER CONDITIONS BREAKOUT
WIND DIRECTION BREAKOUT
WEATHER BY HOUR - OCTOBER 28, 2013
[ °C ]   °F
Local TimeTemperatureDewpointHumidityBarometerVisibilityWind DirectionWind SpeedGust SpeedPrecipitationEventsConditions
12:35 AM32.0 °F30.2 °F93 %29.58 in1.2 miNNW (340°)4.6 mph0.03 inSnowLight Snow
12:55 AM30.2 °F28.4 °F93 %29.58 in0.5 miNorth (360°)4.6 mph0.05 inSnowSnow
1:15 AM30.2 °F28.4 °F93 %29.57 in0.5 miNNE (20°)4.6 mph0.02 inSnowSnow
1:35 AM30.2 °F28.4 °F93 %29.56 in0.5 miCalm0.04 inSnowSnow
1:55 AM30.2 °F28.4 °F93 %29.56 in0.5 miNNW (330°)3.5 mph0.07 inSnowSnow
2:15 AM30.2 °F28.4 °F93 %29.56 in0.5 miNNW (340°)4.6 mph0.03 inSnowSnow
2:35 AM30.2 °F28.4 °F93 %29.56 in0.5 miCalm0.08 inSnowSnow
2:55 AM30.2 °F28.4 °F93 %29.56 in0.8 miCalm0.12 inSnowLight Snow
3:15 AM30.2 °F28.4 °F93 %29.56 in1.0 miCalm0.03 inSnowLight Snow
3:35 AM28.4 °F28.4 °F100 %29.55 in0.8 miCalm0.05 inSnowLight Snow
3:55 AM28.4 °F28.4 °F100 %29.55 in1.5 miCalm0.08 inSnowLight Snow
4:15 AM28.4 °F28.4 °F100 %29.55 in1.5 miCalm0.01 inSnowLight Snow
4:35 AM28.4 °F28.4 °F100 %29.56 in0.8 miCalm0.04 inSnowLight Snow
4:55 AM28.4 °F28.4 °F100 %29.56 in1.0 miCalm0.05 inSnowLight Snow
5:15 AM28.4 °F28.4 °F100 %29.56 in0.8 miCalm0.01 inSnowLight Snow
5:35 AM30.2 °F28.4 °F93 %29.57 in0.8 miWNW (290°)4.6 mph0.03 inSnowLight Snow
5:55 AM30.2 °F28.4 °F93 %29.58 in1.2 miNNW (340°)5.8 mph0.05 inSnowLight Snow
6:15 AM30.2 °F28.4 °F93 %29.57 in1.8 miWSW (250°)9.2 mph0.01 inSnowLight Snow
6:35 AM30.2 °F28.4 °F93 %29.58 in5.0 miWSW (250°)4.6 mph0.02 inSnowLight Snow
7:50 AM28.4 °F28.4 °F100 %29.60 in5.0 miESE (110°)3.5 mphSnowLight Snow
8:50 AM30.2 °F28.4 °F93 %29.63 in3.0 miCalmSnowLight Snow
9:50 AM32.0 °F28.4 °F87 %29.64 in7.0 miCalmMostly Cloudy
10:50 AM33.8 °F26.6 °F75 %29.65 in3.0 miSW (230°)10.4 mphSnowLight Snow
12:45 PM33.8 °F26.6 °F75 %29.67 in4.0 miCalmSnowLight Snow
1:45 PM32.0 °F28.4 °F87 %29.67 in3.0 miCalmSnowLight Snow
2:50 PM32.0 °F30.2 °F93 %29.68 in4.0 miNorth (360°)4.6 mphSnowLight Snow
4:45 PM32.0 °F30.2 °F93 %29.70 in4.0 miNE (50°)3.5 mphOvercast
5:45 PM32.0 °F28.4 °F87 %29.71 in3.0 miCalmSnowLight Snow
5:55 PM32.0 °F28.4 °F87 %29.71 in9.0 miNNE (20°)3.5 mphOvercast
6:15 PM32.0 °F30.2 °F93 %29.72 in9.0 miNNE (30°)5.8 mphOvercast
6:35 PM32.0 °F30.2 °F93 %29.73 in10.0 miNNW (330°)3.5 mphOvercast
6:55 PM32.0 °F28.4 °F87 %29.74 in9.0 miNorth (350°)3.5 mphOvercast
7:15 PM32.0 °F30.2 °F93 %29.74 in6.0 miCalmSnowLight Snow
7:35 PM32.0 °F28.4 °F87 %29.75 in7.0 miSE (140°)3.5 mphSnowLight Snow
7:55 PM32.0 °F30.2 °F93 %29.75 in10.0 miSE (130°)4.6 mphOvercast
8:15 PM32.0 °F30.2 °F93 %29.76 in5.0 miCalmSnowLight Snow
8:35 PM32.0 °F30.2 °F93 %29.77 in8.0 miCalmOvercast
8:55 PM32.0 °F30.2 °F93 %29.77 in10.0 miCalmOvercast
9:15 PM32.0 °F30.2 °F93 %29.78 in10.0 miCalmOvercast
9:35 PM32.0 °F30.2 °F93 %29.78 in10.0 miCalmMostly Cloudy
9:55 PM32.0 °F28.4 °F87 %29.78 in10.0 miCalmMostly Cloudy
10:15 PM32.0 °F30.2 °F93 %29.79 in10.0 miNNE (30°)3.5 mphMostly Cloudy
10:35 PM32.0 °F28.4 °F87 %29.80 in10.0 miNNW (330°)5.8 mphMostly Cloudy
10:55 PM32.0 °F28.4 °F87 %29.80 in10.0 miWSW (240°)3.5 mphMostly Cloudy
11:15 PM30.2 °F28.4 °F93 %29.81 in10.0 miCalmMostly Cloudy
11:35 PM32.0 °F30.2 °F93 %29.81 in10.0 miCalmOvercast
11:55 PM32.0 °F30.2 °F93 %29.81 in10.0 miCalmOvercast
Hourly data recorded from KTRK, located miles away from Alpine Meadows, California







STORIES FROM OUR PARTNERS